EW6171 Weather Reports


time (UTC)temp
F
wind
direction
speed
knots
gust
knots
rain 1hr
in
rain 24hr
in
rain mn
in
humidity
%
barometer
mb
20260505022529 0 10 5.2 8.7 0.00 0.00 0.00 1008.1
20260505022019 0 10 4.3 8.7 0.00 0.00 0.00 1008.1
20260505021509 0 10 4.3 7.8 0.00 0.00 0.00 1008.2
20260505020957 0 10 4.3 7.8 0.00 0.00 0.00 1008.0
20260505020439 0 10 4.3 7.8 0.00 0.00 0.00 1008.0
20260505015930 0 10 5.2 7.8 0.00 0.00 0.00 1007.9
20260505015420 0 10 5.2 8.7 0.00 0.00 0.00 1007.9
20260505015139 0 10 3.5 8.7 0.00 0.00 0.00 1007.8
20260505014358 0 10 2.6 7.8 0.00 0.00 0.00 1007.8
20260505013852 0 10 4.3 8.7 0.00 0.00 0.00 1007.7
20260505013341 0 10 4.3 8.7 0.00 0.00 0.00 1007.7
20260505012842 0 10 4.3 8.7 0.00 0.00 0.00 1007.7
20260505012340 0 10 4.3 8.7 0.00 0.00 0.00 1007.7
20260505011841 0 10 6.1 9.6 0.00 0.00 0.00 1007.8
20260505011341 0 10 7.8 11.3 0.00 0.00 0.00 1007.7
20260505010832 0 10 7.8 11.3 0.00 0.00 0.00 1007.6
20260505010322 0 10 7.0 10.4 0.00 0.00 0.00 1007.5
20260505010041 0 10 7.0 11.3 0.00 0.00 0.00 1007.5
20260505005258 0 10 8.7 11.3 0.00 0.00 0.00 1007.6
20260505004749 0 10 9.6 13.0 0.00 0.00 0.00 1007.6
20260505004237 0 10 9.6 13.0 0.00 0.00 0.00 1007.7
20260505003727 0 10 8.7 13.0 0.00 0.00 0.00 1007.7
20260505003217 0 10 8.7 13.0 0.00 0.00 0.00 1007.7
20260505002157 0 10 8.7 12.2 0.00 0.00 0.00 1007.8
20260505001919 0 169 8.7 12.2 0.00 0.00 0.00 1007.9
20260505001137 0 10 8.7 12.2 0.00 0.00 0.00 1008.0
20260505000627 0 10 8.7 12.2 0.00 0.00 0.00 1008.0
20260504235607 0 10 9.6 13.0 0.00 0.00 0.00 1008.1
20260504235057 0 10 9.6 13.0 0.00 0.00 0.00 1008.2
20260504234544 0 10 9.6 13.0 0.00 0.00 0.00 1008.3
20260504234033 0 10 9.6 13.0 0.00 0.00 0.00 1008.3
20260504233753 0 10 9.6 13.9 0.00 0.00 0.00 1008.2
20260504233013 0 144 10.4 13.9 0.00 0.00 0.00 1008.3
20260504232724 0 10 10.4 13.0 0.00 0.00 0.00 1008.3
20260504231943 0 10 9.6 12.2 0.00 0.00 0.00 1008.4
20260504231433 0 160 9.6 13.9 0.00 0.00 0.00 1008.4
20260504230925 0 10 10.4 13.9 0.00 0.00 0.00 1008.6
20260504230647 0 10 9.6 13.9 0.00 0.00 0.00 1008.5
20260504230140 0 10 9.6 13.9 0.00 0.00 0.00 1008.5
20260504225630 0 10 10.4 13.9 0.00 0.00 0.00 1008.5
20260504225121 0 10 10.4 13.9 0.00 0.00 0.00 1008.4
20260504224602 0 10 9.6 13.9 0.00 0.00 0.00 1008.5
20260504223819 0 171 9.6 13.9 0.00 0.00 0.00 1008.4
20260504223546 0 158 10.4 14.8 0.00 0.00 0.00 1008.4
20260504222803 0 10 10.4 14.8 0.00 0.00 0.00 1008.5
20260504222255 0 138 11.3 13.0 0.00 0.00 0.00 1008.5
20260504221747 0 150 11.3 13.0 0.00 0.00 0.00 1008.6
20260504221243 0 146 11.3 13.9 0.00 0.00 0.00 1008.7
20260504220729 0 10 10.4 13.9 0.00 0.00 0.00 1008.6
20260504220221 0 10 10.4 13.0 0.00 0.00 0.00 1008.6
20260504215717 0 10 10.4 13.0 0.00 0.00 0.00 1008.8
20260504215213 0 10 11.3 13.0 0.00 0.00 0.00 1008.8
20260504214709 0 140 10.4 13.0 0.00 0.00 0.00 1008.9
20260504214203 0 10 9.6 13.9 0.00 0.00 0.00 1009.0
20260504213659 0 10 9.6 12.2 0.00 0.00 0.00 1009.1
20260504213152 0 163 10.4 12.2 0.00 0.00 0.00 1009.1
20260504212651 0 10 10.4 12.2 0.00 0.00 0.00 1009.2
20260504212148 0 10 9.6 12.2 0.00 0.00 0.00 1009.3
20260504211645 0 10 10.4 12.2 0.00 0.00 0.00 1009.5
20260504211414 0 10 10.4 13.0 0.00 0.00 0.00 1009.6
20260504210907 0 10 10.4 13.0 0.00 0.00 0.00 1009.6
20260504210133 0 10 9.6 13.0 0.00 0.00 0.00 1009.7
20260504205628 0 10 10.4 13.0 0.00 0.00 0.00 1009.7
20260504205353 0 10 10.4 13.0 0.00 0.00 0.00 1009.8
20260504204615 0 10 10.4 13.0 0.00 0.00 0.00 1009.8
20260504204112 0 10 10.4 13.0 0.00 0.00 0.00 1009.9
20260504203557 0 10 10.4 13.0 0.00 0.00 0.00 1009.9
20260504203054 0 10 9.6 13.0 0.00 0.00 0.00 1010.0
20260504202546 0 10 10.4 13.0 0.00 0.00 0.00 1010.2
20260504202040 0 10 10.4 13.0 0.00 0.00 0.00 1010.2
20260504201032 0 10 10.4 13.0 0.00 0.00 0.00 1010.1
20260504200754 0 152 10.4 13.0 0.00 0.00 0.00 1010.1
20260504200016 0 10 10.4 12.2 0.00 0.00 0.00 1010.2
20260504195514 0 10 10.4 13.9 0.00 0.00 0.00 1010.4
20260504195008 0 160 10.4 13.9 0.00 0.00 0.00 1010.4
20260504194502 0 10 9.6 13.0 0.00 0.00 0.00 1010.5
20260504193958 0 10 9.6 13.0 0.00 0.00 0.00 1010.6
20260504193450 0 145 9.6 12.2 0.00 0.00 0.00 1010.7
20260504192948 0 10 9.6 13.0 0.00 0.00 0.00 1010.9
20260504192438 0 10 9.6 13.0 0.00 0.00 0.00 1010.9
20260504191930 0 10 9.6 12.2 0.00 0.00 0.00 1010.8
20260504191422 0 10 9.6 13.9 0.00 0.00 0.00 1010.7
20260504190408 0 10 10.4 13.9 0.00 0.00 0.00 1010.7
20260504185901 0 142 10.4 13.9 0.00 0.00 0.00 1010.6
20260504185350 0 10 10.4 13.0 0.00 0.00 0.00 1011.0
20260504184840 0 10 10.4 13.0 0.00 0.00 0.00 1011.1
20260504184329 0 10 10.4 13.9 0.00 0.00 0.00 1011.1
20260504183818 0 10 9.6 13.9 0.00 0.00 0.00 1010.9
20260504183308 0 145 9.6 12.2 0.00 0.00 0.00 1011.0
20260504182758 0 10 10.4 12.2 0.00 0.00 0.00 1011.0
20260504182246 0 10 9.6 13.0 0.00 0.00 0.00 1010.9
20260504181737 0 153 9.6 12.2 0.00 0.00 0.00 1011.0
20260504181227 0 10 9.6 12.2 0.00 0.00 0.00 1011.3
20260504180716 0 10 9.6 12.2 0.00 0.00 0.00 1011.2
20260504180157 0 10 9.6 13.0 0.00 0.00 0.00 1011.4
20260504175646 0 10 9.6 13.0 0.00 0.00 0.00 1011.5
20260504175136 0 154 9.6 12.2 0.00 0.00 0.00 1011.5
20260504174626 0 157 9.6 12.2 0.00 0.00 0.00 1011.5
20260504174349 0 10 9.6 12.2 0.00 0.00 0.00 1011.6
20260504173558 0 10 10.4 13.9 0.00 0.00 0.00 1011.7
20260504173050 0 10 10.4 13.9 0.00 0.00 0.00 1011.7
20260504172538 0 10 9.6 13.0 0.00 0.00 0.00 1011.6
20260504172026 0 167 8.7 13.0 0.00 0.00 0.00 1011.9
20260504171520 0 212 8.7 11.3 0.00 0.00 0.00 1012.0
20260504171010 0 10 9.6 13.9 0.00 0.00 0.00 1011.9
20260504170453 0 10 8.7 13.9 0.00 0.00 0.00 1011.8
20260504151109 0 10 8.7 11.3 0.00 0.00 0.00 1012.4
20260504150600 0 10 8.7 11.3 0.00 0.00 0.00 1012.4
20260504141135 0 203 6.1 9.6 0.00 0.00 0.00 1012.7
20260504140355 0 10 7.0 10.4 0.00 0.00 0.00 1012.8
20260504130146 0 219 3.5 6.1 0.00 0.00 0.00 1012.3
20260504110351 0 10 0.0 1.7 0.00 0.00 0.00 1012.2
20260504100244 0 109 0.0 0.9 0.00 0.00 0.00 1012.5
20260504090118 0 118 0.0 1.7 0.00 0.00 0.00 1012.9
20260504081459 0 127 0.0 0.0 0.00 0.00 0.00 1013.1
20260504080950 0 127 0.0 0.0 0.00 0.00 0.00 1013.1
20260504080439 0 154 0.0 0.0 0.00 0.00 0.00 1013.3
20260504080201 0 110 0.0 0.0 0.00 0.00 0.00 1013.5
20260504070247 0 140 0.0 0.0 0.00 0.00 0.00 1014.5
20260504050354 0 115 2.6 3.5 0.00 0.00 0.00 1015.6
20260504050115 0 115 2.6 3.5 0.00 0.00 0.00 1015.7
20260504045606 0 117 3.5 3.5 0.00 0.00 0.00 1015.8
20260504045055 0 115 3.5 5.2 0.00 0.00 0.00 1015.8
20260504044545 0 122 3.5 3.5 0.00 0.00 0.00 1015.8
20260504043805 0 10 2.6 3.5 0.00 0.00 0.00 1015.9
20260504043254 0 137 2.6 3.5 0.00 0.00 0.00 1015.9
20260504042744 0 10 2.6 3.5 0.00 0.00 0.00 1015.9
20260504042234 0 127 3.5 3.5 0.00 0.00 0.00 1015.9
20260504041734 0 113 3.5 3.5 0.00 0.00 0.00 1015.9
20260504041226 0 128 2.6 3.5 0.00 0.00 0.00 1015.9
20260504040716 0 110 2.6 3.5 0.00 0.00 0.00 1015.8
20260504040206 0 115 2.6 3.5 0.00 0.00 0.00 1015.9
20260504035654 0 111 1.7 3.5 0.00 0.00 0.00 1015.9
20260504035136 0 108 1.7 2.6 0.00 0.00 0.00 1015.8
20260504034626 0 105 1.7 2.6 0.00 0.00 0.00 1015.8
20260504034116 0 106 1.7 3.5 0.00 0.00 0.00 1015.9
20260504033606 0 107 2.6 3.5 0.00 0.00 0.00 1015.9
20260504033056 0 112 3.5 3.5 0.00 0.00 0.00 1015.9
20260504032546 0 10 2.6 3.5 0.00 0.00 0.00 1015.8
20260504032028 0 10 2.6 3.5 0.00 0.00 0.00 1015.8
20260504031525 0 119 1.7 3.5 0.00 0.00 0.00 1015.8
20260504031023 0 125 1.7 3.5 0.00 0.00 0.00 1015.9
20260504030522 0 118 2.6 3.5 0.00 0.00 0.00 1015.7
20260504030002 0 116 3.5 3.5 0.00 0.00 0.00 1015.6
20260504025452 0 10 2.6 3.5 0.00 0.00 0.00 1015.5
20260504024942 0 10 2.6 3.5 0.00 0.00 0.00 1015.5
20260504024433 0 114 3.5 3.5 0.00 0.00 0.00 1015.6
20260504024155 0 10 3.5 3.5 0.00 0.00 0.00 1015.6
20260504023412 0 123 3.5 3.5 0.00 0.00 0.00 1015.5